Regional Weather Roundup
Issued by NWS

Home | Current Version | Previous Version | Graphics & Text | Print | Product List | Glossary On
Versions: 1 2 3 4 5 6 7 8 9 10 11 12 13 14 15 16 17 18 19 20 21 22 23 24 25 26 27 28 29 30 31 32 33 34 35 36 37 38 39 40 41 42 43 44 45 46 47 48 49 50
000
ASUS43 KOAX 011402
RWRNE

WEATHER ROUNDUP FOR NEBRASKA
NATIONAL WEATHER SERVICE OMAHA NE
900 AM CDT FRI AUG 01 2014

NOTES: SATELLITE DATA IS BEING USED TO AUGMENT CLOUD COVER ABOVE
       12000 FEET.
       "FAIR" INDICATES FEW OR NO CLOUDS BELOW 12,000 FEET WITH NO
       SIGNIFICANT WEATHER AND/OR OBSTRUCTIONS TO VISIBILITY.

  * THESE STATIONS DO NOT REPORT WEATHER SUCH AS RAIN...SNOW OR FOG.

NEZ001>004-019>022-054>056-011500-
NEBRASKA PANHANDLE

CITY           SKY/WX    TMP DP  RH WIND       PRES   REMARKS
SCOTTSBLUFF    SUNNY     65  52  62 NW3       30.21R
ALLIANCE       SUNNY     65  49  56 CALM      30.20R
CHADRON        SUNNY     66  49  54 SW5       30.15S
SIDNEY         SUNNY     66  49  54 NW3       30.23R
$$

NEZ057>060-069>072-079>082-011500-
SOUTHWEST NEBRASKA

CITY           SKY/WX    TMP DP  RH WIND       PRES   REMARKS
NORTH PLATTE   SUNNY     64  56  75 CALM      30.15R
IMPERIAL       SUNNY     69  55  60 CALM      30.16R
MCCOOK           N/A     66  57  72 CALM      30.14R
$$

NEZ005>010-023>029-035>040-094-011500-
NORTH CENTRAL NEBRASKA

CITY           SKY/WX    TMP DP  RH WIND       PRES   REMARKS
VALENTINE      SUNNY     67  55  65 SW3       30.12S
AINSWORTH      SUNNY     70  61  72 S5        30.13S
BROKEN BOW     SUNNY     68  63  84 CALM      30.14R
ORD            SUNNY     65  61  87 NW6       30.12R
$$

NEZ041-046>049-061>064-073>077-083>087-011500-
SOUTH CENTRAL NEBRASKA

CITY           SKY/WX    TMP DP  RH WIND       PRES   REMARKS
GRAND ISLAND   SUNNY     65  60  84 N6        30.11R
AURORA         SUNNY     65  64  94 N6        30.10R
HASTINGS       SUNNY     66  59  78 N8        30.11R
KEARNEY *      SUNNY     64  59  82 NW7       30.13R
YORK           SUNNY     64  63  94 N8        30.09R
$$

NEZ011>018-030>034-042>045-011500-
NORTHEAST NEBRASKA

CITY           SKY/WX    TMP DP  RH WIND       PRES   REMARKS
NORFOLK        SUNNY     67  60  78 E5        30.11R
ALBION         SUNNY     65  60  84 CALM      30.11S
BLAIR          MOSUNNY   69  61  77 E3        30.09R
COLUMBUS *     SUNNY     63  59  88 E6        30.09S
FREMONT        SUNNY     70  62  76 CALM      30.10R
TEKAMAH        CLOUDY    67  62  84 N7        30.10R
$$

NEZ050>053-065>068-078-088>093-011500-
SOUTHEAST NEBRASKA

CITY           SKY/WX    TMP DP  RH WIND       PRES   REMARKS
LINCOLN        SUNNY     70  60  70 E5        30.07R
OMAHA EPPLEY   PTSUNNY   69  60  73 CALM      30.08R
BEATRICE       SUNNY     68  60  75 CALM      30.04S
FALLS CITY     MOSUNNY   72  64  76 SE12      30.06R
NEBRASKA CITY  MOSUNNY   67  61  82 E9        30.07R
PLATTSMOUTH    PTSUNNY   68  62  81 SE7       30.07S
$$

NEZ044-045-051>053-067-011500-
OMAHA AREA

CITY           SKY/WX    TMP DP  RH WIND       PRES   REMARKS
OMAHA EPPLEY   PTSUNNY   69  60  73 CALM      30.08R
BLAIR          MOSUNNY   69  61  77 E3        30.09R
FREMONT        SUNNY     70  62  76 CALM      30.10R
OFFUTT AFB     SUNNY     71  66  83 E7        30.07R
PLATTSMOUTH    PTSUNNY   68  62  81 SE7       30.07S
WAHOO          FAIR      69  63  80 E5        30.08R
$$



USA.gov is the U.S. government's official web portal to all federal, state and local government web resources and services.